QPF
0.01 0.02 0.04 0.06 0.08 0.05 0.02 0.03 0.02 0.02 0.02 0.04 0.05 0.02 0.02 0.02 0.02 0.04 0.08 0.08 0.05 0.02 0.03 0.04 0.06 0.06 0.06 0.06 0.06 0.05 0.07 0.11 0.15 0.14 0.13 0.11 0.10 0.09 0.09 0.09 0.10 0.10 0.11 0.10 0.09 0.07 0.03 0.04 0.04
0.04 0.05 0.05 0.06 0.06 0.04 0.02 0.03 0.01 0.02 0.03 0.05 0.04 0.01 0.01 0.01 0.01 0.04 0.09 0.06 0.04 0.02 0.03 0.05 0.07 0.06 0.05 0.06 0.06 0.05 0.05 0.06 0.09 0.12 0.13 0.11 0.10 0.11 0.12 0.13 0.14 0.13 0.11 0.08 0.08 0.04 0.02 0.02 0.02
0.04 0.05 0.07 0.07 0.04 0.02 0.02 0.03 0.02 0.03 0.03 0.04 0.03 0.01 0.01 0.02 0.03 0.06 0.07 0.05 0.05 0.06 0.05 0.05 0.06 0.05 0.05 0.06 0.07 0.06 0.06 0.07 0.10 0.16 0.21 0.21 0.19 0.16 0.14 0.15 0.14 0.12 0.09 0.08 0.06 0.04 0.03 0.02 0.02
0.04 0.04 0.06 0.03 0.02 0.01 0.01 0.01 0.01 0.02 0.01 0.02 0.02 0.01 0.01 0.03 0.06 0.11 0.14 0.08 0.04 0.07 0.07 0.07 0.06 0.06 0.06 0.06 0.07 0.06 0.06 0.08 0.12 0.18 0.22 0.20 0.15 0.12 0.10 0.09 0.09 0.09 0.08 0.06 0.04 0.03 0.03 0.03 0.03
0.04 0.04 0.04 0.02 0.01 0.01 0.00 0.00 0.00 0.01 0.01 0.02 0.03 0.02 0.07 0.09 0.11 0.15 0.17 0.10 0.04 0.04 0.05 0.07 0.06 0.05 0.08 0.07 0.07 0.07 0.07 0.08 0.10 0.12 0.13 0.11 0.09 0.08 0.07 0.07 0.07 0.06 0.05 0.04 0.03 0.03 0.03 0.03 0.03
0.04 0.03 0.02 0.01 0.01 0.01 0.00 0.00 0.00 0.00 0.01 0.03 0.04 0.06 0.10 0.15 0.15 0.13 0.09 0.06 0.02 0.01 0.02 0.03 0.03 0.04 0.08 0.10 0.12 0.13 0.14 0.12 0.10 0.08 0.07 0.06 0.06 0.06 0.05 0.04 0.05 0.05 0.03 0.03 0.04 0.04 0.04 0.03 0.03
0.04 0.03 0.02 0.01 0.01 0.01 0.00 0.00 0.00 0.00 0.01 0.07 0.15 0.10 0.11 0.17 0.19 0.13 0.08 0.04 0.02 0.01 0.01 0.02 0.03 0.04 0.07 0.09 0.10 0.13 0.14 0.11 0.09 0.07 0.06 0.06 0.05 0.05 0.05 0.05 0.06 0.05 0.03 0.03 0.03 0.03 0.03 0.03 0.03
0.05 0.02 0.02 0.01 0.01 0.01 0.00 0.00 0.00 0.00 0.01 0.03 0.10 0.13 0.14 0.19 0.19 0.13 0.07 0.04 0.02 0.02 0.02 0.03 0.03 0.03 0.03 0.04 0.04 0.06 0.07 0.07 0.08 0.08 0.09 0.08 0.08 0.07 0.06 0.05 0.04 0.03 0.03 0.03 0.03 0.04 0.02 0.02 0.03
0.03 0.02 0.01 0.01 0.00 0.00 0.00 0.00 0.00 0.00 0.01 0.03 0.08 0.16 0.16 0.16 0.13 0.10 0.06 0.04 0.03 0.02 0.02 0.02 0.02 0.02 0.02 0.03 0.03 0.04 0.07 0.05 0.05 0.06 0.07 0.07 0.06 0.06 0.05 0.05 0.04 0.03 0.03 0.03 0.04 0.04 0.02 0.02 0.03
0.01 0.01 0.01 0.00 0.00 0.00 0.00 0.01 0.00 0.01 0.02 0.03 0.08 0.14 0.12 0.10 0.10 0.08 0.07 0.06 0.04 0.03 0.02 0.02 0.01 0.01 0.01 0.02 0.02 0.02 0.02 0.02 0.02 0.03 0.03 0.03 0.03 0.04 0.04 0.05 0.03 0.03 0.03 0.03 0.04 0.04 0.04 0.03 0.02
0.01 0.00 0.00 0.00 0.00 0.00 0.00 0.01 0.00 0.01 0.02 0.04 0.13 0.16 0.11 0.10 0.12 0.11 0.09 0.07 0.05 0.03 0.02 0.02 0.02 0.01 0.01 0.01 0.01 0.01 0.01 0.01 0.02 0.01 0.01 0.01 0.03 0.03 0.03 0.03 0.02 0.02 0.02 0.02 0.03 0.03 0.03 0.04 0.03
0.00 0.00 0.00 0.00 0.00 0.00 0.00 0.00 0.00 0.01 0.02 0.02 0.05 0.09 0.11 0.09 0.09 0.11 0.11 0.08 0.06 0.06 0.04 0.04 0.03 0.03 0.02 0.02 0.02 0.01 0.02 0.02 0.01 0.01 0.01 0.02 0.02 0.02 0.02 0.02 0.02 0.02 0.02 0.02 0.01 0.02 0.02 0.03 0.04
0.00 0.00 0.00 0.00 0.00 0.00 0.00 0.00 0.00 0.01 0.02 0.03 0.03 0.03 0.06 0.07 0.07 0.10 0.09 0.08 0.07 0.07 0.04 0.02 0.01 0.02 0.02 0.03 0.04 0.04 0.03 0.03 0.03 0.03 0.02 0.02 0.02 0.03 0.04 0.04 0.03 0.03 0.03 0.03 0.03 0.02 0.02 0.02 0.03
0.00 0.00 0.00 0.00 0.00 0.01 0.00 0.01 0.00 0.00 0.01 0.02 0.02 0.02 0.03 0.04 0.05 0.07 0.08 0.07 0.08 0.07 0.04 0.02 0.02 0.03 0.04 0.04 0.04 0.04 0.03 0.04 0.04 0.03 0.03 0.01 0.01 0.03 0.06 0.10 0.04 0.03 0.04 0.04 0.04 0.03 0.03 0.03 0.04
0.01 0.00 0.00 0.00 0.00 0.01 0.01 0.01 0.01 0.01 0.01 0.01 0.01 0.01 0.02 0.03 0.03 0.04 0.05 0.06 0.06 0.06 0.04 0.02 0.02 0.02 0.04 0.05 0.04 0.03 0.02 0.02 0.01 0.01 0.01 0.01 0.02 0.02 0.02 0.06 0.04 0.03 0.02 0.02 0.03 0.04 0.04 0.04 0.04
0.01 0.01 0.01 0.01 0.00 0.01 0.02 0.01 0.01 0.01 0.01 0.01 0.01 0.01 0.01 0.01 0.02 0.03 0.04 0.03 0.02 0.02 0.02 0.01 0.00 0.01 0.01 0.02 0.02 0.02 0.02 0.02 0.01 0.01 0.01 0.01 0.01 0.01 0.02 0.02 0.02 0.02 0.01 0.02 0.03 0.03 0.03 0.04 0.05
0.02 0.01 0.02 0.01 0.01 0.01 0.01 0.01 0.03 0.03 0.02 0.01 0.01 0.01 0.01 0.01 0.02 0.02 0.01 0.01 0.01 0.01 0.00 0.00 0.00 0.00 0.01 0.01 0.01 0.01 0.02 0.02 0.01 0.01 0.01 0.00 0.01 0.01 0.03 0.02 0.02 0.02 0.02 0.04 0.04 0.03 0.04 0.04 0.05
0.03 0.02 0.02 0.01 0.01 0.01 0.01 0.01 0.01 0.01 0.03 0.03 0.01 0.01 0.00 0.00 0.00 0.01 0.01 0.01 0.00 0.00 0.00 0.00 0.00 0.00 0.01 0.01 0.01 0.01 0.01 0.02 0.02 0.02 0.02 0.01 0.02 0.02 0.03 0.03 0.02 0.02 0.02 0.03 0.04 0.04 0.05 0.04 0.04
0.01 0.01 0.01 0.01 0.01 0.01 0.01 0.01 0.01 0.03 0.05 0.04 0.02 0.02 0.01 0.00 0.00 0.00 0.00 0.00 0.00 0.00 0.00 0.00 0.00 0.00 0.00 0.01 0.01 0.01 0.01 0.02 0.02 0.02 0.02 0.02 0.03 0.03 0.05 0.03 0.02 0.02 0.01 0.02 0.02 0.02 0.04 0.06 0.06
0.01 0.00 0.00 0.01 0.00 0.01 0.01 0.01 0.01 0.01 0.01 0.02 0.02 0.04 0.01 0.01 0.00 0.00 0.00 0.00 0.00 0.00 0.00 0.00 0.00 0.00 0.00 0.00 0.00 0.00 0.01 0.02 0.03 0.04 0.07 0.03 0.04 0.03 0.04 0.02 0.02 0.01 0.01 0.02 0.03 0.03 0.02 0.04 0.07
0.01 0.00 0.00 0.00 0.00 0.01 0.01 0.01 0.01 0.01 0.03 0.03 0.03 0.03 0.01 0.01 0.01 0.00 0.00 0.00 0.00 0.00 0.00 0.00 0.00 0.00 0.00 0.00 0.00 0.00 0.01 0.02 0.02 0.02 0.05 0.03 0.04 0.04 0.02 0.01 0.01 0.01 0.01 0.02 0.02 0.02 0.01 0.02 0.04
0.01 0.00 0.00 0.00 0.01 0.01 0.01 0.02 0.03 0.02 0.05 0.08 0.05 0.03 0.02 0.01 0.01 0.00 0.00 0.00 0.00 0.00 0.00 0.01 0.00 0.00 0.00 0.00 0.00 0.00 0.00 0.01 0.02 0.02 0.02 0.03 0.03 0.03 0.02 0.01 0.01 0.01 0.01 0.02 0.03 0.04 0.03 0.02 0.02
0.01 0.00 0.00 0.01 0.01 0.01 0.01 0.02 0.03 0.03 0.05 0.11 0.07 0.05 0.04 0.02 0.01 0.01 0.00 0.00 0.00 0.00 0.00 0.01 0.01 0.01 0.00 0.00 0.00 0.00 0.00 0.01 0.01 0.01 0.01 0.02 0.02 0.03 0.03 0.02 0.01 0.01 0.01 0.02 0.03 0.04 0.04 0.03 0.03
0.01 0.00 0.01 0.01 0.02 0.02 0.01 0.02 0.05 0.04 0.06 0.10 0.07 0.07 0.05 0.03 0.02 0.02 0.02 0.01 0.01 0.01 0.01 0.02 0.01 0.01 0.00 0.00 0.00 0.00 0.00 0.01 0.01 0.01 0.01 0.02 0.01 0.01 0.02 0.02 0.01 0.01 0.01 0.02 0.03 0.03 0.03 0.03 0.03
0.01 0.01 0.02 0.05 0.03 0.02 0.01 0.02 0.04 0.09 0.18 0.10 0.08 0.09 0.07 0.04 0.03 0.04 0.04 0.05 0.08 0.08 0.07 0.03 0.03 0.02 0.01 0.01 0.00 0.00 0.00 0.00 0.01 0.01 0.01 0.01 0.01 0.01 0.01 0.02 0.01 0.01 0.01 0.01 0.01 0.01 0.02 0.02 0.03
0.01 0.01 0.03 0.06 0.03 0.02 0.02 0.03 0.02 0.05 0.15 0.08 0.08 0.08 0.06 0.03 0.03 0.04 0.05 0.10 0.17 0.10 0.06 0.03 0.03 0.04 0.03 0.02 0.01 0.01 0.01 0.01 0.01 0.01 0.01 0.01 0.01 0.01 0.01 0.01 0.01 0.01 0.01 0.01 0.01 0.01 0.01 0.02 0.04
0.01 0.01 0.02 0.04 0.03 0.03 0.02 0.02 0.03 0.04 0.08 0.05 0.06 0.06 0.04 0.03 0.03 0.04 0.03 0.05 0.07 0.04 0.02 0.02 0.02 0.04 0.04 0.04 0.04 0.04 0.03 0.03 0.03 0.02 0.01 0.02 0.02 0.02 0.02 0.02 0.01 0.01 0.01 0.01 0.01 0.01 0.01 0.01 0.02
0.00 0.01 0.01 0.02 0.03 0.03 0.03 0.03 0.03 0.03 0.03 0.04 0.04 0.04 0.04 0.04 0.04 0.04 0.03 0.03 0.03 0.02 0.02 0.03 0.03 0.03 0.05 0.08 0.10 0.12 0.13 0.11 0.06 0.03 0.02 0.02 0.02 0.02 0.02 0.02 0.02 0.01 0.01 0.01 0.01 0.01 0.01 0.01 0.01
0.00 0.00 0.01 0.01 0.02 0.02 0.04 0.04 0.02 0.03 0.03 0.03 0.04 0.04 0.05 0.06 0.04 0.02 0.03 0.04 0.03 0.02 0.03 0.03 0.02 0.03 0.04 0.05 0.05 0.05 0.08 0.05 0.05 0.04 0.02 0.01 0.02 0.04 0.04 0.03 0.03 0.02 0.01 0.01 0.01 0.01 0.01 0.01 0.01
0.00 0.00 0.00 0.01 0.01 0.01 0.02 0.03 0.02 0.02 0.02 0.03 0.03 0.03 0.04 0.06 0.05 0.03 0.02 0.03 0.03 0.01 0.01 0.01 0.01 0.01 0.02 0.02 0.02 0.02 0.02 0.04 0.05 0.05 0.05 0.06 0.06 0.05 0.03 0.03 0.03 0.02 0.01 0.01 0.01 0.01 0.01 0.01 0.01
MSLP
1006.98 1008.18 1009.79 1011.59 1013.35 1014.85 1015.93 1016.54 1016.73 1016.60 1016.34 1016.10 1016.02 1016.12 1016.39 1016.74 1017.06 1017.24 1017.23 1017.03 1016.67 1016.25 1015.84 1015.51 1015.31 1015.21 1015.17 1015.12 1015.02 1014.84 1014.57 1014.25 1013.95 1013.71 1013.57 1013.54 1013.58 1013.67 1013.72 1013.70 1013.59 1013.38 1013.12 1012.86 1012.65 1012.53 1012.52 1012.61 1012.77
1007.45 1008.88 1010.64 1012.51 1014.24 1015.61 1016.50 1016.88 1016.81 1016.45 1016.00 1015.63 1015.46 1015.52 1015.79 1016.16 1016.52 1016.76 1016.82 1016.69 1016.43 1016.11 1015.81 1015.59 1015.47 1015.43 1015.43 1015.39 1015.28 1015.07 1014.79 1014.47 1014.18 1013.97 1013.88 1013.90 1014.00 1014.12 1014.21 1014.21 1014.12 1013.95 1013.73 1013.52 1013.36 1013.29 1013.30 1013.39 1013.52
1008.26 1009.86 1011.71 1013.56 1015.17 1016.35 1017.01 1017.14 1016.84 1016.29 1015.70 1015.24 1015.02 1015.08 1015.36 1015.75 1016.14 1016.40 1016.50 1016.42 1016.22 1015.96 1015.74 1015.60 1015.55 1015.57 1015.61 1015.60 1015.50 1015.31 1015.04 1014.74 1014.47 1014.29 1014.21 1014.23 1014.32 1014.42 1014.48 1014.48 1014.39 1014.24 1014.07 1013.93 1013.84 1013.83 1013.89 1013.98 1014.09
1009.34 1011.05 1012.90 1014.65 1016.08 1017.04 1017.46 1017.36 1016.88 1016.20 1015.54 1015.05 1014.84 1014.91 1015.20 1015.59 1015.97 1016.23 1016.32 1016.25 1016.07 1015.85 1015.67 1015.58 1015.58 1015.65 1015.73 1015.76 1015.70 1015.54 1015.31 1015.05 1014.81 1014.64 1014.55 1014.54 1014.57 1014.61 1014.62 1014.56 1014.45 1014.31 1014.19 1014.10 1014.08 1014.13 1014.22 1014.33 1014.42
1010.55 1012.30 1014.09 1015.68 1016.90 1017.62 1017.82 1017.55 1016.96 1016.23 1015.57 1015.11 1014.93 1015.03 1015.33 1015.71 1016.05 1016.27 1016.31 1016.21 1016.02 1015.80 1015.64 1015.58 1015.61 1015.72 1015.83 1015.89 1015.88 1015.77 1015.59 1015.37 1015.16 1015.00 1014.90 1014.85 1014.81 1014.77 1014.69 1014.57 1014.42 1014.28 1014.17 1014.13 1014.15 1014.24 1014.36 1014.47 1014.54
1011.75 1013.47 1015.12 1016.52 1017.51 1018.01 1018.03 1017.66 1017.03 1016.34 1015.75 1015.37 1015.26 1015.40 1015.69 1016.03 1016.31 1016.46 1016.44 1016.29 1016.06 1015.84 1015.69 1015.64 1015.69 1015.81 1015.94 1016.03 1016.04 1015.97 1015.84 1015.67 1015.50 1015.36 1015.25 1015.16 1015.07 1014.95 1014.80 1014.61 1014.42 1014.25 1014.14 1014.12 1014.17 1014.27 1014.39 1014.49 1014.55
1012.81 1014.42 1015.89 1017.05 1017.82 1018.14 1018.04 1017.63 1017.05 1016.46 1015.99 1015.73 1015.71 1015.88 1016.16 1016.45 1016.65 1016.72 1016.63 1016.43 1016.19 1015.97 1015.82 1015.78 1015.84 1015.96 1016.08 1016.17 1016.19 1016.14 1016.03 1015.90 1015.77 1015.65 1015.56 1015.46 1015.34 1015.19 1014.99 1014.76 1014.53 1014.34 1014.22 1014.19 1014.23 1014.33 1014.43 1014.52 1014.56
1013.64 1015.09 1016.34 1017.26 1017.82 1017.99 1017.83 1017.45 1016.97 1016.52 1016.21 1016.08 1016.15 1016.35 1016.61 1016.84 1016.96 1016.95 1016.81 1016.59 1016.34 1016.14 1016.02 1016.00 1016.06 1016.16 1016.26 1016.31 1016.31 1016.24 1016.14 1016.03 1015.93 1015.86 1015.79 1015.72 1015.62 1015.46 1015.26 1015.01 1014.77 1014.57 1014.44 1014.39 1014.42 1014.49 1014.58 1014.65 1014.67
1014.26 1015.50 1016.50 1017.20 1017.57 1017.63 1017.45 1017.13 1016.77 1016.49 1016.34 1016.35 1016.49 1016.71 1016.94 1017.10 1017.16 1017.09 1016.92 1016.70 1016.49 1016.34 1016.26 1016.27 1016.33 1016.41 1016.46 1016.46 1016.40 1016.29 1016.16 1016.05 1015.98 1015.94 1015.93 1015.91 1015.85 1015.74 1015.57 1015.35 1015.13 1014.93 1014.80 1014.74 1014.75 1014.80 1014.87 1014.92 1014.95
1014.70 1015.73 1016.49 1016.98 1017.19 1017.17 1016.99 1016.75 1016.53 1016.40 1016.39 1016.50 1016.69 1016.91 1017.10 1017.21 1017.21 1017.11 1016.94 1016.76 1016.61 1016.52 1016.51 1016.55 1016.62 1016.67 1016.66 1016.58 1016.45 1016.28 1016.11 1015.99 1015.92 1015.92 1015.96 1016.01 1016.02 1015.98 1015.87 1015.71 1015.52 1015.35 1015.23 1015.17 1015.17 1015.22 1015.29 1015.35 1015.38
1015.08 1015.90 1016.45 1016.75 1016.83 1016.75 1016.59 1016.43 1016.32 1016.31 1016.40 1016.58 1016.79 1016.99 1017.13 1017.19 1017.15 1017.03 1016.89 1016.76 1016.68 1016.67 1016.72 1016.80 1016.88 1016.90 1016.84 1016.69 1016.48 1016.24 1016.03 1015.88 1015.81 1015.83 1015.92 1016.03 1016.11 1016.15 1016.12 1016.02 1015.89 1015.76 1015.67 1015.62 1015.64 1015.70 1015.79 1015.87 1015.93
1015.48 1016.12 1016.49 1016.65 1016.63 1016.52 1016.38 1016.27 1016.24 1016.31 1016.46 1016.66 1016.86 1017.02 1017.11 1017.11 1017.04 1016.92 1016.81 1016.73 1016.72 1016.78 1016.88 1017.00 1017.08 1017.08 1016.98 1016.78 1016.51 1016.22 1015.97 1015.79 1015.72 1015.75 1015.86 1016.01 1016.15 1016.25 1016.28 1016.25 1016.18 1016.10 1016.05 1016.04 1016.09 1016.18 1016.30 1016.43 1016.54
1015.95 1016.46 1016.70 1016.75 1016.67 1016.53 1016.41 1016.34 1016.35 1016.45 1016.61 1016.79 1016.96 1017.06 1017.10 1017.06 1016.96 1016.85 1016.76 1016.72 1016.75 1016.85 1016.99 1017.12 1017.20 1017.19 1017.07 1016.85 1016.57 1016.26 1015.99 1015.79 1015.71 1015.74 1015.85 1016.01 1016.18 1016.31 1016.39 1016.40 1016.38 1016.35 1016.34 1016.38 1016.47 1016.62 1016.79 1016.98 1017.14
1016.50 1016.91 1017.07 1017.06 1016.95 1016.80 1016.69 1016.64 1016.66 1016.76 1016.89 1017.03 1017.14 1017.19 1017.17 1017.10 1016.98 1016.86 1016.78 1016.75 1016.80 1016.90 1017.04 1017.17 1017.24 1017.24 1017.13 1016.93 1016.67 1016.39 1016.13 1015.95 1015.86 1015.87 1015.96 1016.10 1016.25 1016.37 1016.46 1016.51 1016.52 1016.53 1016.57 1016.65 1016.80 1017.00 1017.24 1017.48 1017.71
1017.03 1017.39 1017.52 1017.49 1017.38 1017.25 1017.14 1017.10 1017.11 1017.18 1017.26 1017.35 1017.40 1017.40 1017.34 1017.24 1017.12 1016.99 1016.90 1016.86 1016.87 1016.94 1017.04 1017.14 1017.21 1017.22 1017.16 1017.02 1016.83 1016.62 1016.42 1016.26 1016.18 1016.16 1016.21 1016.29 1016.39 1016.49 1016.56 1016.60 1016.64 1016.69 1016.77 1016.90 1017.09 1017.34 1017.64 1017.94 1018.22
1017.46 1017.79 1017.92 1017.91 1017.84 1017.74 1017.66 1017.62 1017.61 1017.63 1017.66 1017.69 1017.68 1017.65 1017.58 1017.47 1017.34 1017.22 1017.10 1017.02 1016.98 1016.98 1017.02 1017.07 1017.13 1017.16 1017.16 1017.11 1017.03 1016.93 1016.81 1016.71 1016.63 1016.59 1016.58 1016.59 1016.62 1016.66 1016.69 1016.73 1016.78 1016.85 1016.97 1017.14 1017.38 1017.67 1018.00 1018.34 1018.66
1017.67 1018.01 1018.17 1018.23 1018.22 1018.19 1018.15 1018.11 1018.08 1018.05 1018.02 1017.98 1017.93 1017.88 1017.80 1017.71 1017.60 1017.48 1017.35 1017.23 1017.11 1017.03 1016.98 1016.98 1017.01 1017.07 1017.14 1017.20 1017.25 1017.27 1017.26 1017.22 1017.16 1017.09 1017.02 1016.95 1016.90 1016.88 1016.87 1016.90 1016.95 1017.06 1017.21 1017.41 1017.67 1017.97 1018.32 1018.67 1019.01
1017.62 1017.98 1018.22 1018.38 1018.47 1018.53 1018.54 1018.52 1018.46 1018.38 1018.28 1018.18 1018.09 1018.02 1017.96 1017.90 1017.83 1017.73 1017.60 1017.43 1017.26 1017.09 1016.95 1016.88 1016.88 1016.96 1017.09 1017.26 1017.44 1017.59 1017.68 1017.71 1017.67 1017.57 1017.44 1017.31 1017.18 1017.10 1017.06 1017.08 1017.15 1017.28 1017.46 1017.69 1017.95 1018.26 1018.59 1018.93 1019.27
1017.32 1017.74 1018.09 1018.38 1018.62 1018.79 1018.87 1018.86 1018.77 1018.61 1018.43 1018.26 1018.12 1018.04 1018.00 1017.99 1017.98 1017.92 1017.80 1017.62 1017.40 1017.15 1016.94 1016.80 1016.76 1016.85 1017.03 1017.29 1017.58 1017.83 1018.02 1018.10 1018.08 1017.96 1017.78 1017.58 1017.40 1017.27 1017.22 1017.24 1017.34 1017.50 1017.71 1017.94 1018.20 1018.48 1018.77 1019.07 1019.38
1016.86 1017.38 1017.88 1018.35 1018.75 1019.04 1019.19 1019.19 1019.05 1018.80 1018.52 1018.25 1018.05 1017.94 1017.92 1017.95 1018.00 1018.01 1017.94 1017.78 1017.53 1017.24 1016.96 1016.76 1016.68 1016.76 1016.97 1017.28 1017.64 1017.97 1018.22 1018.35 1018.33 1018.20 1017.98 1017.74 1017.52 1017.37 1017.31 1017.36 1017.49 1017.68 1017.91 1018.14 1018.37 1018.60 1018.82 1019.06 1019.31
1016.37 1017.03 1017.72 1018.39 1018.97 1019.39 1019.60 1019.59 1019.38 1019.02 1018.59 1018.20 1017.90 1017.74 1017.72 1017.80 1017.92 1018.01 1018.00 1017.88 1017.65 1017.34 1017.03 1016.78 1016.66 1016.71 1016.92 1017.25 1017.63 1018.01 1018.29 1018.44 1018.43 1018.28 1018.04 1017.77 1017.53 1017.37 1017.33 1017.40 1017.56 1017.78 1018.01 1018.24 1018.43 1018.58 1018.73 1018.88 1019.07
1016.00 1016.84 1017.73 1018.61 1019.37 1019.91 1020.17 1020.13 1019.81 1019.30 1018.71 1018.16 1017.73 1017.49 1017.45 1017.56 1017.74 1017.91 1018.00 1017.95 1017.76 1017.46 1017.14 1016.86 1016.70 1016.71 1016.89 1017.20 1017.59 1017.96 1018.26 1018.41 1018.39 1018.24 1017.99 1017.70 1017.46 1017.31 1017.28 1017.37 1017.56 1017.79 1018.02 1018.22 1018.36 1018.44 1018.50 1018.56 1018.66
1015.85 1016.87 1017.98 1019.06 1019.97 1020.61 1020.88 1020.78 1020.35 1019.67 1018.89 1018.15 1017.58 1017.24 1017.15 1017.27 1017.50 1017.76 1017.93 1017.96 1017.84 1017.59 1017.27 1016.98 1016.79 1016.75 1016.89 1017.17 1017.52 1017.88 1018.16 1018.31 1018.29 1018.14 1017.89 1017.61 1017.37 1017.22 1017.20 1017.31 1017.50 1017.73 1017.94 1018.10 1018.19 1018.20 1018.17 1018.14 1018.16
1015.94 1017.14 1018.43 1019.67 1020.70 1021.39 1021.66 1021.48 1020.91 1020.06 1019.09 1018.18 1017.45 1017.00 1016.85 1016.95 1017.22 1017.54 1017.80 1017.92 1017.88 1017.68 1017.39 1017.10 1016.89 1016.82 1016.91 1017.14 1017.46 1017.79 1018.05 1018.19 1018.18 1018.03 1017.79 1017.52 1017.29 1017.15 1017.13 1017.22 1017.40 1017.61 1017.80 1017.92 1017.96 1017.91 1017.81 1017.71 1017.66
1016.20 1017.55 1018.97 1020.31 1021.40 1022.11 1022.34 1022.07 1021.38 1020.38 1019.25 1018.19 1017.33 1016.77 1016.55 1016.63 1016.91 1017.28 1017.60 1017.80 1017.83 1017.70 1017.45 1017.18 1016.97 1016.87 1016.92 1017.11 1017.39 1017.68 1017.93 1018.07 1018.06 1017.93 1017.71 1017.46 1017.23 1017.09 1017.06 1017.13 1017.28 1017.46 1017.62 1017.71 1017.71 1017.62 1017.48 1017.33 1017.23
1016.53 1017.95 1019.43 1020.80 1021.90 1022.58 1022.75 1022.41 1021.62 1020.51 1019.28 1018.11 1017.16 1016.53 1016.25 1016.29 1016.57 1016.96 1017.32 1017.57 1017.66 1017.59 1017.39 1017.15 1016.94 1016.83 1016.86 1017.01 1017.26 1017.53 1017.77 1017.91 1017.93 1017.83 1017.63 1017.40 1017.18 1017.04 1016.98 1017.02 1017.14 1017.28 1017.40 1017.47 1017.46 1017.36 1017.22 1017.06 1016.94
1016.79 1018.20 1019.66 1020.99 1022.03 1022.64 1022.75 1022.35 1021.52 1020.37 1019.11 1017.90 1016.92 1016.25 1015.93 1015.94 1016.19 1016.57 1016.94 1017.22 1017.34 1017.31 1017.15 1016.94 1016.75 1016.65 1016.66 1016.80 1017.02 1017.28 1017.51 1017.67 1017.71 1017.64 1017.48 1017.27 1017.07 1016.92 1016.84 1016.85 1016.93 1017.04 1017.15 1017.21 1017.21 1017.14 1017.03 1016.89 1016.78
1016.86 1018.20 1019.56 1020.77 1021.71 1022.23 1022.29 1021.86 1021.04 1019.93 1018.71 1017.55 1016.59 1015.93 1015.61 1015.58 1015.79 1016.12 1016.46 1016.72 1016.85 1016.84 1016.71 1016.53 1016.37 1016.27 1016.28 1016.40 1016.61 1016.85 1017.09 1017.26 1017.33 1017.29 1017.17 1017.00 1016.82 1016.67 1016.59 1016.57 1016.63 1016.72 1016.82 1016.90 1016.94 1016.92 1016.87 1016.79 1016.73
1016.69 1017.90 1019.10 1020.15 1020.94 1021.37 1021.38 1020.98 1020.22 1019.22 1018.13 1017.09 1016.22 1015.61 1015.29 1015.24 1015.39 1015.64 1015.92 1016.12 1016.22 1016.20 1016.08 1015.91 1015.76 1015.67 1015.67 1015.78 1015.97 1016.20 1016.43 1016.61 1016.70 1016.70 1016.63 1016.50 1016.36 1016.23 1016.15 1016.14 1016.18 1016.27 1016.38 1016.50 1016.59 1016.65 1016.67 1016.68 1016.68
1016.35 1017.38 1018.38 1019.24 1019.87 1020.20 1020.18 1019.83 1019.20 1018.37 1017.46 1016.59 1015.86 1015.33 1015.03 1014.95 1015.02 1015.18 1015.35 1015.46 1015.50 1015.44 1015.30 1015.13 1014.98 1014.89 1014.88 1014.97 1015.12 1015.33 1015.53 1015.71 1015.82 1015.86 1015.83 1015.76 1015.66 1015.58 1015.53 1015.53 1015.59 1015.69 1015.83 1015.98 1016.12 1016.25 1016.36 1016.45 1016.52
Thickness
5826 5823 5819 5805 5780 5757 5753 5763 5772 5772 5771 5776 5780 5775 5766 5759 5751 5742 5762 5770 5771 5771 5771 5772 5773 5774 5775 5775 5776 5776 5777 5777 5777 5778 5777 5777 5777 5777 5777 5777 5775 5774 5773 5771 5770 5769 5768 5767 5766
5828 5825 5814 5794 5764 5742 5750 5767 5770 5774 5777 5781 5780 5775 5767 5761 5766 5764 5766 5769 5771 5771 5772 5772 5772 5773 5774 5774 5774 5775 5775 5775 5776 5776 5776 5775 5775 5775 5774 5774 5773 5772 5771 5769 5768 5768 5766 5765 5764
5831 5826 5803 5781 5762 5750 5755 5771 5775 5780 5785 5783 5775 5774 5768 5762 5767 5768 5771 5772 5772 5772 5772 5772 5772 5773 5773 5773 5774 5774 5774 5774 5774 5774 5774 5774 5773 5773 5772 5771 5771 5770 5769 5768 5767 5766 5765 5764 5763
5830 5814 5798 5774 5763 5773 5776 5779 5783 5779 5780 5782 5775 5766 5769 5776 5775 5774 5775 5775 5773 5772 5772 5772 5772 5772 5772 5773 5773 5772 5772 5772 5772 5772 5772 5772 5771 5771 5770 5770 5769 5768 5767 5766 5765 5764 5763 5762 5761
5827 5802 5778 5765 5771 5782 5789 5791 5790 5780 5775 5774 5773 5761 5762 5776 5780 5778 5777 5776 5774 5773 5773 5772 5772 5772 5772 5772 5772 5771 5771 5771 5771 5770 5770 5770 5769 5769 5769 5768 5767 5766 5765 5765 5764 5763 5762 5761 5760
5811 5794 5767 5758 5773 5786 5791 5795 5789 5778 5773 5773 5770 5761 5761 5777 5778 5778 5778 5777 5777 5775 5773 5772 5771 5771 5771 5771 5771 5770 5769 5769 5770 5769 5769 5768 5768 5768 5767 5766 5765 5764 5764 5763 5763 5762 5761 5760 5759
5805 5788 5774 5773 5775 5781 5791 5799 5790 5780 5774 5775 5776 5762 5764 5774 5779 5781 5780 5778 5776 5775 5774 5772 5771 5771 5771 5771 5770 5770 5769 5769 5769 5769 5768 5767 5767 5767 5766 5765 5764 5764 5763 5763 5762 5761 5761 5760 5759
5821 5796 5781 5779 5778 5781 5798 5802 5798 5789 5781 5787 5784 5766 5763 5775 5783 5782 5780 5777 5776 5775 5774 5773 5771 5771 5771 5771 5770 5770 5769 5769 5769 5768 5767 5767 5767 5766 5766 5765 5765 5764 5763 5762 5762 5761 5760 5760 5759
5831 5793 5777 5784 5784 5788 5802 5798 5798 5801 5792 5788 5788 5782 5782 5786 5785 5779 5775 5773 5772 5773 5773 5773 5772 5771 5771 5771 5771 5770 5769 5768 5768 5767 5767 5766 5766 5766 5765 5765 5764 5764 5763 5762 5762 5761 5761 5760 5760
5822 5792 5795 5809 5808 5802 5804 5801 5798 5791 5783 5781 5782 5785 5788 5786 5782 5776 5772 5770 5770 5771 5773 5773 5773 5772 5772 5772 5771 5770 5769 5768 5767 5767 5767 5766 5766 5765 5765 5765 5764 5763 5763 5762 5762 5761 5761 5760 5759
5828 5811 5818 5821 5822 5816 5806 5804 5806 5790 5776 5780 5780 5781 5784 5783 5780 5776 5775 5774 5774 5775 5775 5775 5774 5774 5774 5773 5772 5771 5770 5769 5768 5767 5767 5766 5765 5765 5765 5764 5764 5763 5762 5762 5761 5761 5761 5760 5759
5834 5831 5832 5826 5828 5820 5812 5808 5802 5795 5790 5797 5795 5792 5787 5782 5779 5778 5777 5777 5777 5777 5777 5777 5778 5777 5776 5775 5774 5772 5771 5769 5768 5767 5767 5766 5765 5765 5764 5764 5763 5763 5762 5762 5761 5761 5760 5759 5758
5833 5831 5836 5834 5829 5824 5819 5810 5804 5799 5803 5803 5799 5794 5788 5785 5783 5784 5784 5782 5781 5778 5779 5779 5780 5779 5778 5776 5775 5773 5772 5771 5769 5768 5768 5767 5766 5764 5764 5764 5763 5763 5762 5762 5761 5761 5760 5759 5758
5835 5835 5833 5831 5829 5825 5815 5809 5804 5799 5806 5802 5798 5793 5791 5789 5787 5786 5785 5783 5783 5782 5782 5782 5782 5781 5780 5778 5776 5774 5773 5772 5771 5770 5769 5768 5767 5766 5764 5763 5763 5763 5763 5762 5762 5761 5760 5758 5757
5842 5826 5822 5825 5827 5822 5814 5796 5799 5806 5806 5799 5797 5795 5794 5792 5791 5789 5788 5787 5787 5786 5785 5784 5784 5783 5781 5779 5777 5776 5774 5773 5772 5771 5770 5769 5767 5767 5765 5764 5763 5763 5763 5763 5762 5761 5760 5758 5757
5829 5811 5799 5816 5825 5822 5806 5779 5800 5810 5806 5798 5797 5797 5795 5794 5794 5794 5794 5792 5791 5789 5787 5787 5788 5784 5782 5781 5779 5777 5775 5774 5773 5772 5771 5770 5768 5767 5765 5764 5763 5763 5762 5762 5761 5759 5757 5755 5754
5805 5791 5794 5809 5824 5821 5807 5789 5805 5812 5808 5801 5800 5799 5797 5795 5796 5798 5798 5797 5795 5793 5791 5788 5788 5786 5784 5782 5780 5778 5776 5775 5773 5772 5771 5770 5769 5767 5765 5764 5763 5762 5761 5761 5760 5758 5756 5753 5752
5791 5793 5798 5802 5820 5821 5807 5801 5809 5813 5811 5805 5803 5802 5800 5798 5799 5802 5802 5801 5798 5796 5793 5791 5789 5787 5785 5783 5780 5778 5776 5775 5774 5773 5772 5771 5769 5767 5765 5764 5762 5762 5760 5759 5758 5756 5755 5753 5752
5814 5805 5801 5812 5830 5820 5809 5805 5809 5813 5810 5806 5805 5804 5803 5803 5806 5806 5805 5804 5800 5796 5794 5791 5789 5787 5786 5782 5778 5775 5773 5774 5774 5774 5773 5771 5769 5767 5765 5764 5762 5761 5759 5758 5757 5755 5752 5751 5750
5817 5805 5805 5815 5830 5820 5807 5806 5813 5816 5814 5814 5811 5809 5808 5805 5805 5806 5806 5804 5801 5798 5795 5793 5791 5789 5788 5785 5782 5780 5777 5776 5775 5775 5773 5772 5770 5768 5766 5764 5762 5760 5759 5757 5756 5754 5750 5749 5749
5816 5808 5809 5810 5821 5819 5805 5794 5801 5812 5818 5818 5818 5817 5815 5812 5808 5807 5806 5805 5803 5800 5798 5797 5794 5792 5790 5788 5785 5782 5778 5776 5774 5773 5773 5773 5771 5769 5767 5765 5763 5761 5759 5756 5755 5753 5750 5746 5747
5808 5828 5826 5818 5801 5788 5796 5767 5790 5803 5807 5812 5815 5817 5817 5818 5815 5812 5810 5807 5806 5805 5804 5801 5798 5795 5792 5789 5785 5781 5776 5772 5773 5773 5773 5773 5772 5770 5768 5766 5764 5761 5759 5757 5756 5754 5752 5748 5744
5822 5836 5827 5817 5799 5786 5789 5773 5780 5799 5795 5805 5815 5819 5821 5821 5820 5817 5816 5814 5812 5810 5807 5804 5801 5797 5794 5791 5788 5783 5779 5776 5775 5774 5773 5772 5771 5770 5768 5766 5765 5762 5760 5758 5756 5754 5752 5749 5745
5836 5824 5814 5802 5785 5765 5781 5773 5773 5790 5803 5811 5818 5822 5824 5824 5822 5820 5820 5817 5814 5812 5809 5806 5801 5798 5796 5793 5789 5785 5781 5778 5775 5773 5771 5770 5769 5769 5768 5766 5764 5762 5760 5758 5756 5754 5752 5750 5747
5823 5792 5765 5759 5749 5756 5783 5776 5780 5810 5822 5824 5822 5824 5827 5827 5823 5820 5817 5814 5812 5810 5808 5806 5802 5798 5797 5794 5791 5788 5784 5780 5776 5774 5772 5770 5768 5767 5766 5766 5764 5762 5760 5758 5756 5753 5751 5750 5747
5810 5793 5760 5744 5744 5757 5777 5773 5794 5824 5831 5833 5832 5831 5829 5827 5826 5823 5821 5819 5816 5813 5811 5808 5804 5800 5798 5795 5792 5789 5786 5782 5779 5776 5774 5772 5770 5769 5768 5766 5764 5762 5760 5758 5756 5753 5751 5749 5747
5805 5793 5794 5767 5760 5752 5761 5780 5802 5823 5824 5825 5826 5826 5826 5828 5827 5826 5824 5822 5819 5816 5814 5811 5807 5803 5800 5797 5793 5790 5787 5783 5780 5778 5776 5773 5772 5770 5768 5765 5764 5762 5760 5758 5755 5752 5750 5748 5746
5820 5807 5782 5761 5744 5738 5755 5768 5778 5801 5809 5817 5820 5821 5824 5828 5828 5828 5826 5824 5822 5820 5818 5814 5810 5806 5802 5799 5795 5792 5787 5784 5782 5779 5776 5774 5773 5770 5767 5765 5763 5761 5759 5757 5754 5751 5749 5746 5744
5806 5798 5783 5763 5758 5740 5738 5759 5806 5809 5815 5817 5821 5825 5826 5826 5827 5828 5828 5827 5824 5822 5819 5815 5811 5807 5803 5799 5795 5792 5788 5786 5783 5779 5777 5774 5772 5770 5766 5764 5761 5759 5757 5755 5752 5749 5747 5744 5742
5813 5801 5785 5764 5755 5753 5747 5764 5821 5820 5822 5824 5824 5828 5830 5830 5830 5830 5829 5827 5823 5820 5818 5815 5812 5808 5805 5801 5797 5793 5789 5786 5782 5780 5777 5775 5771 5769 5766 5763 5761 5758 5756 5754 5751 5747 5746 5743 5740